Temperature
17 17 17 17 17 17 17 17 17 16 17 17 17 16 16 16 16 16 16 16 16 16 16 16 16 16 15 15 15 15 15 15 15 15 15 15 15 15
16 16 16 16 16 16 17 16 16 16 16 16 16 16 16 16 16 16 16 16 16 16 16 16 16 15 15 15 15 15 15 15 15 15 15 15 15 15
16 16 16 16 16 16 16 16 16 16 16 16 16 16 16 16 16 16 16 16 15 15 15 15 15 15 15 15 15 15 15 15 15 15 15 15 15 15
16 16 16 16 16 16 16 16 16 16 16 15 15 15 15 15 15 15 15 15 15 15 15 15 15 15 15 15 15 15 15 15 15 14 15 15 15 14
15 15 15 15 15 15 15 15 15 15 15 15 15 15 15 15 15 15 15 15 15 15 15 15 15 15 15 15 15 15 14 14 14 14 14 14 14 14
15 15 15 15 15 15 15 15 15 15 15 14 14 14 14 14 14 14 14 14 14 14 14 14 14 14 14 14 14 14 14 14 14 14 14 14 14 14
15 15 15 15 15 15 15 15 15 14 14 14 14 14 14 14 14 14 14 14 14 14 14 14 14 14 14 14 14 14 14 14 14 14 14 14 14 14
15 15 14 14 15 15 14 14 14 14 14 14 14 14 14 14 14 14 13 13 13 13 13 14 14 14 14 14 14 14 14 14 14 14 13 13 13 13
14 15 14 14 14 14 14 14 14 14 14 14 14 14 14 14 14 14 13 13 13 13 13 13 13 13 13 14 14 14 14 14 14 13 13 13 13 13
14 14 14 14 14 14 14 14 14 14 14 14 14 14 14 13 13 13 13 13 13 13 13 13 13 13 13 13 13 13 13 13 13 13 13 13 13 13
14 14 14 14 14 14 14 14 14 13 13 13 13 13 13 13 13 13 13 13 13 13 13 13 13 13 13 13 13 13 13 13 13 13 13 13 13 13
14 14 14 14 14 13 13 13 13 13 13 13 13 13 13 13 13 13 13 13 12 12 12 12 13 12 12 12 13 13 13 13 13 13 12 12 12 12
13 13 14 14 13 13 13 13 13 13 13 13 13 13 13 13 13 13 13 13 12 12 12 12 12 12 12 12 12 12 12 13 12 12 12 12 12 12
13 13 13 13 13 13 13 13 13 13 13 12 13 13 13 13 13 13 13 12 12 12 12 12 12 12 12 12 12 12 12 12 12 12 12 12 12 12
13 13 13 13 13 13 13 13 13 13 12 12 12 12 12 12 12 12 12 12 12 12 12 12 12 12 12 12 12 12 12 12 12 12 12 12 12 12
13 12 13 13 13 13 13 13 13 12 12 12 12 12 12 12 12 12 12 12 12 12 12 12 12 12 12 12 12 12 12 12 12 12 12 12 12 11
12 12 12 12 12 12 12 12 12 12 12 12 12 12 12 12 12 12 12 12 12 11 12 12 12 12 12 12 12 12 12 12 12 12 12 11 11 11
12 12 12 12 12 12 12 12 12 12 12 12 11 11 11 11 11 12 12 11 11 11 11 11 11 11 11 11 12 12 12 12 11 11 11 11 11 11
12 12 12 12 12 12 12 12 12 12 12 11 11 11 11 11 11 11 11 11 11 11 11 11 11 11 11 11 11 11 11 11 11 11 11 11 11 11
12 12 12 12 11 11 11 11 11 11 11 11 11 11 11 11 11 11 11 11 11 11 11 11 11 11 11 11 11 11 11 11 11 11 11 11 11 11
12 12 12 11 11 11 11 11 11 11 11 11 11 11 11 11 11 11 11 11 11 11 11 11 11 11 11 11 11 11 11 11 11 11 11 10 10 10
12 11 11 11 11 11 11 11 11 11 11 11 10 10 11 10 10 11 11 11 11 11 11 11 11 11 11 11 10 10 10 11 11 11 11 10 10 10
11 11 11 11 11 11 11 11 11 11 10 10 10 10 10 10 11 11 11 11 11 11 11 11 11 11 10 10 10 10 10 10 10 10 10 10 10 10
Wind_Speed
3 2 2 2 2 2 2 2 2 2 2 1 1 1 2 2 4 4 4 8 9 9 8 7 6 6 6 5 5 6 7 7 8 9 10 10 11 12
2 2 2 2 2 2 2 1 1 1 2 1 1 1 1 1 3 3 3 6 8 7 7 7 6 6 6 5 5 5 6 7 8 9 9 9 10 10
2 2 2 2 2 2 2 1 1 1 2 1 0 0 0 1 1 1 3 4 4 7 8 7 6 6 6 5 5 5 6 7 7 8 8 9 9 10
2 2 2 2 3 2 2 2 1 1 2 2 1 1 0 1 1 2 2 3 3 4 6 7 6 6 5 5 4 4 5 6 6 6 6 7 8 9
2 2 2 2 3 2 2 2 2 1 1 2 2 1 1 1 0 2 1 1 2 4 5 6 6 6 6 5 4 3 4 4 5 6 6 7 6 7
2 2 2 2 2 2 2 2 2 1 1 2 2 2 1 1 1 1 1 1 1 2 2 4 5 5 5 5 4 4 4 4 5 5 6 7 6 6
3 2 2 2 2 2 2 1 1 1 1 1 2 2 1 1 1 2 2 1 1 1 0 1 2 3 3 4 4 4 4 4 5 5 6 6 6 7
3 3 3 2 2 2 2 2 1 2 2 2 2 2 2 2 2 2 2 2 2 1 1 2 1 1 2 4 5 6 5 5 5 6 6 6 6 7
3 3 4 2 2 1 2 3 3 4 4 3 3 3 3 2 2 2 2 2 3 2 2 2 2 2 2 3 8 8 7 6 6 6 6 6 5 6
3 3 3 2 2 1 2 2 3 3 4 4 3 3 3 2 2 3 3 2 2 2 2 3 2 2 2 3 7 9 9 8 8 8 7 7 6 6
4 3 3 3 3 3 2 2 2 3 3 3 4 3 3 3 3 1 2 2 3 2 2 2 2 2 2 2 5 9 9 8 9 9 8 8 7 6
3 3 4 4 4 4 4 3 3 3 2 2 2 2 3 4 4 3 3 3 2 2 2 1 2 1 2 2 2 5 6 7 9 9 9 8 7 6
2 2 2 4 5 5 5 4 5 3 3 2 2 2 2 2 3 3 3 3 3 3 2 2 2 2 2 1 2 3 5 5 6 6 8 8 8 7
3 2 2 4 4 5 5 6 6 3 3 3 2 2 2 2 2 2 3 3 3 4 3 3 3 3 2 2 2 2 3 4 5 5 5 7 8 10
3 2 2 4 4 5 7 6 5 4 3 3 3 2 2 2 2 1 1 2 4 5 5 4 3 2 2 3 2 2 2 3 4 4 4 4 5 5
3 4 4 5 4 4 3 4 4 4 3 3 2 2 1 1 1 1 1 2 2 2 3 5 4 3 2 2 2 2 2 2 3 3 3 3 3 5
2 2 2 2 2 3 3 3 3 3 3 2 2 1 1 1 1 1 1 2 2 2 1 1 2 3 3 3 3 3 2 1 2 2 2 2 2 4
2 2 2 2 3 3 2 2 3 3 2 2 2 2 2 2 2 1 1 2 2 2 1 1 2 2 2 1 2 3 1 1 1 1 2 3 3 2
3 3 3 3 3 2 2 2 2 2 2 2 2 2 2 2 1 1 1 1 1 2 1 1 1 2 2 2 1 1 2 1 1 2 2 2 2 2
2 2 2 2 2 2 2 2 2 1 1 1 1 1 1 1 1 1 2 1 2 2 1 1 2 2 2 2 2 2 3 3 2 2 2 2 1 0
2 2 1 1 1 1 0 0 0 1 1 1 2 2 1 1 1 2 1 2 2 2 2 2 2 3 2 1 1 1 1 2 2 2 2 2 2 2
2 2 1 1 1 1 1 1 1 1 2 2 2 2 2 2 2 2 2 2 2 2 2 1 1 1 1 2 3 2 2 1 2 4 4 4 3 3
1 1 1 1 1 1 1 1 1 1 1 2 2 2 2 2 2 2 3 2 2 2 1 1 1 1 2 3 3 2 2 2 2 2 3 5 7 8
Wind_Direction
285 285 284 279 270 265 247 235 235 261 261 237 189 107 100 107 141 152 152 167 173 181 184 187 193 199 200 202 209 216 222 229 234 234 233 229 226 223
301 316 313 310 311 284 275 259 245 239 269 276 227 130 84 100 141 144 149 165 178 183 185 185 190 198 204 206 211 220 227 232 235 235 232 228 226 220
293 307 308 314 310 306 312 291 263 227 231 257 261 324 105 98 133 161 175 166 175 193 191 189 192 199 206 209 214 223 228 231 231 232 228 223 216 212
286 292 293 295 305 306 310 303 276 236 208 237 241 247 223 175 215 236 208 190 167 178 182 183 187 191 196 203 213 222 225 225 225 224 218 213 213 211
261 264 278 289 293 305 292 291 273 250 210 214 238 233 250 211 211 277 266 178 190 176 176 181 188 193 194 195 199 205 215 215 211 206 205 201 203 209
260 250 259 260 275 284 270 273 270 260 244 233 232 233 223 217 196 228 251 233 257 205 172 176 187 191 188 187 184 184 187 190 192 192 193 192 197 201
259 246 244 218 219 253 268 261 248 236 243 245 244 237 229 218 236 242 240 218 256 242 199 210 180 179 186 194 190 187 183 183 188 190 191 188 188 192
253 255 247 206 207 219 244 271 252 231 236 241 255 242 242 239 248 249 243 226 241 224 217 261 199 207 185 180 191 185 181 183 188 187 186 182 182 183
249 252 261 247 183 215 228 243 257 258 236 235 240 247 251 244 237 242 237 244 247 228 218 255 241 228 202 181 176 180 182 183 187 187 186 186 188 189
237 235 237 252 229 227 232 234 243 249 234 224 233 252 254 242 240 240 229 226 242 236 202 236 236 238 233 165 183 182 185 189 192 191 190 192 195 197
239 226 215 213 221 207 210 229 255 267 255 223 212 227 234 227 221 224 233 227 247 236 202 218 233 244 241 221 194 191 190 194 195 195 195 199 204 202
241 217 200 200 203 203 214 222 240 261 280 277 219 220 217 216 215 207 217 231 249 248 200 211 226 229 253 223 179 182 194 202 203 203 201 201 198 191
261 235 208 192 212 220 221 223 231 253 267 249 239 223 221 223 220 215 211 218 238 253 218 200 225 236 234 245 216 195 189 189 189 199 202 202 199 192
261 254 226 211 219 226 227 223 224 234 248 245 239 238 224 228 229 210 205 206 220 232 232 203 212 219 228 253 260 220 202 192 183 185 181 189 202 208
272 275 258 233 227 229 225 218 212 220 230 238 237 238 235 225 213 201 205 206 224 237 228 203 207 220 224 238 235 234 232 217 188 177 174 181 191 197
279 272 249 239 229 234 226 213 214 217 219 228 237 228 223 230 210 194 212 224 230 243 222 206 199 207 234 239 223 236 238 220 197 177 167 187 192 195
275 261 247 240 235 224 225 218 213 208 215 228 227 216 214 225 243 244 227 240 236 241 217 203 189 191 217 233 225 228 227 215 189 177 178 205 215 204
212 235 247 243 246 240 224 215 213 212 211 216 214 211 215 219 234 257 254 231 247 258 245 207 198 214 240 264 243 229 240 232 210 200 198 209 226 223
206 226 240 252 251 234 226 235 232 215 192 201 214 219 222 224 227 242 245 241 261 267 257 225 208 206 225 259 294 255 226 229 219 235 227 221 229 223
228 237 247 256 259 248 231 233 220 194 184 194 211 229 240 241 244 237 233 233 245 249 252 236 217 212 221 246 255 259 236 222 217 230 258 280 287 259
269 282 263 253 244 227 204 180 203 195 194 194 203 218 238 245 254 255 245 246 249 239 242 247 236 219 212 193 239 252 261 231 216 218 223 245 263 253
252 262 263 255 206 188 188 188 218 201 195 206 221 225 230 238 242 245 247 245 239 237 255 263 221 215 225 238 249 239 237 234 249 251 242 239 234 241
246 246 247 193 185 173 170 172 190 214 211 225 233 228 232 244 247 244 239 244 245 244 237 239 250 252 240 230 241 248 241 238 240 240 268 264 243 239
Height
1512 1512 1512 1512 1512 1513 1513 1513 1514 1513 1514 1514 1514 1515 1515 1514 1514 1514 1514 1513 1514 1514 1515 1515 1516 1516 1517 1517 1518 1518 1519 1519 1520 1521 1522 1522 1523 1525
1509 1509 1509 1509 1509 1510 1510 1510 1511 1511 1511 1511 1512 1512 1513 1513 1512 1511 1511 1512 1513 1513 1513 1514 1514 1514 1514 1515 1515 1515 1516 1516 1517 1518 1518 1519 1520 1521
1507 1507 1507 1507 1507 1507 1507 1508 1508 1509 1509 1509 1510 1510 1511 1511 1511 1510 1511 1511 1511 1512 1512 1512 1512 1512 1512 1512 1512 1513 1513 1513 1514 1514 1515 1516 1517 1518
1504 1504 1504 1504 1504 1504 1505 1505 1505 1506 1506 1506 1507 1508 1508 1508 1508 1509 1509 1509 1509 1510 1510 1510 1510 1509 1509 1509 1509 1509 1510 1510 1510 1511 1511 1512 1513 1515
1502 1501 1501 1501 1501 1502 1502 1502 1503 1503 1504 1504 1504 1505 1506 1506 1506 1506 1507 1507 1508 1508 1508 1508 1508 1507 1507 1507 1507 1507 1507 1507 1507 1508 1508 1509 1510 1511
1499 1499 1499 1499 1499 1499 1499 1500 1500 1500 1501 1501 1502 1502 1503 1504 1504 1504 1504 1505 1506 1506 1506 1506 1505 1505 1505 1504 1504 1504 1504 1504 1504 1504 1505 1506 1507 1507
1496 1496 1496 1496 1496 1497 1497 1497 1497 1497 1498 1498 1499 1500 1501 1501 1502 1502 1502 1503 1503 1504 1504 1504 1503 1502 1502 1502 1502 1502 1502 1501 1501 1502 1502 1503 1504 1505
1493 1493 1493 1493 1493 1494 1495 1495 1495 1495 1495 1496 1496 1497 1498 1499 1499 1500 1500 1500 1500 1502 1501 1501 1501 1500 1500 1500 1500 1500 1499 1499 1499 1500 1500 1500 1501 1502
1490 1490 1491 1491 1491 1491 1491 1492 1492 1493 1494 1494 1494 1495 1495 1496 1497 1497 1497 1498 1498 1498 1499 1498 1498 1498 1498 1497 1498 1498 1497 1497 1497 1497 1498 1498 1499 1499
1487 1487 1487 1488 1488 1488 1489 1489 1489 1490 1491 1491 1492 1492 1493 1493 1494 1495 1495 1495 1495 1496 1496 1496 1496 1496 1496 1495 1496 1496 1495 1495 1495 1495 1495 1496 1497 1497
1484 1484 1484 1484 1485 1486 1486 1486 1486 1487 1488 1489 1489 1490 1490 1491 1491 1492 1492 1492 1492 1493 1493 1493 1493 1493 1493 1493 1493 1493 1493 1493 1493 1493 1494 1494 1495 1495
1481 1481 1482 1482 1482 1483 1483 1483 1483 1484 1485 1485 1486 1487 1487 1488 1488 1489 1489 1489 1489 1489 1489 1490 1490 1491 1491 1491 1491 1491 1491 1491 1491 1492 1492 1492 1492 1493
1478 1478 1478 1479 1479 1480 1480 1480 1481 1482 1482 1482 1483 1483 1484 1484 1485 1485 1486 1486 1486 1486 1486 1487 1487 1488 1488 1488 1488 1489 1489 1489 1489 1489 1490 1490 1490 1491
1475 1475 1476 1476 1476 1477 1477 1478 1479 1479 1480 1480 1480 1480 1481 1481 1482 1482 1482 1482 1482 1483 1483 1484 1484 1485 1485 1485 1486 1486 1486 1487 1487 1487 1487 1488 1488 1488
1472 1473 1473 1473 1473 1474 1474 1475 1476 1477 1477 1478 1478 1478 1478 1479 1479 1479 1479 1479 1479 1479 1480 1480 1481 1482 1483 1483 1483 1484 1484 1484 1485 1484 1484 1485 1485 1485
1469 1470 1470 1470 1471 1471 1471 1473 1473 1474 1474 1475 1475 1476 1476 1476 1476 1477 1476 1476 1476 1476 1477 1478 1478 1479 1480 1480 1481 1481 1482 1482 1482 1482 1482 1482 1482 1482
1467 1467 1467 1467 1467 1468 1468 1469 1470 1471 1472 1472 1473 1473 1473 1474 1474 1474 1474 1474 1474 1474 1474 1475 1476 1476 1477 1477 1478 1478 1479 1479 1479 1479 1479 1479 1479 1479
1464 1464 1464 1465 1465 1465 1466 1466 1467 1468 1469 1470 1470 1471 1471 1471 1471 1472 1472 1472 1472 1472 1473 1473 1474 1474 1475 1475 1476 1476 1476 1476 1476 1477 1476 1477 1476 1477
1462 1462 1462 1463 1463 1463 1464 1464 1465 1466 1466 1467 1468 1469 1469 1469 1470 1470 1470 1470 1470 1471 1471 1472 1472 1472 1472 1472 1472 1474 1474 1474 1474 1474 1474 1474 1474 1474
1460 1460 1460 1461 1461 1461 1462 1462 1463 1464 1464 1465 1466 1466 1467 1467 1467 1467 1468 1468 1469 1469 1469 1470 1470 1470 1470 1471 1470 1471 1472 1472 1472 1472 1472 1472 1472 1472
1458 1458 1458 1458 1459 1459 1460 1461 1461 1462 1462 1463 1463 1464 1464 1465 1465 1465 1466 1466 1467 1467 1467 1468 1468 1469 1469 1469 1469 1469 1469 1470 1470 1469 1469 1469 1469 1468
1456 1456 1456 1456 1457 1457 1458 1459 1459 1460 1460 1461 1461 1462 1462 1463 1463 1463 1464 1464 1465 1465 1465 1466 1466 1467 1467 1467 1467 1466 1466 1467 1467 1467 1467 1467 1466 1465
1454 1454 1454 1454 1455 1455 1456 1456 1457 1458 1458 1459 1459 1459 1460 1460 1461 1461 1462 1462 1462 1462 1463 1463 1464 1464 1464 1465 1465 1464 1464 1464 1464 1464 1464 1464 1464 1463